{"data":{"norad_id":68034,"intl_designator":"2026-040V","name":"STARLINK-36939","alt_names":[],"object_type":"PAYLOAD","status":"ACTIVE","operator":null,"country":"US","launch_date":"2026-03-01","launch_site_code":"AFWTR","launch_vehicle":null,"mission":null,"orbit_class":"UNKNOWN","rcs_meters":null,"size_class":null,"mass_kg":null,"dimensions":null,"purposes":["comms"],"wikipedia_slug":null,"has_3d_model":false,"image_url":null,"decayed_at":null,"tle_current":{"epoch":"2026-05-24T19:42:05.127552Z","epoch_age_seconds":90590,"freshness":"FRESH","line1":"1 68034U 26040V   26144.82089268  .00016843  00000+0  52266-3 0  9998","line2":"2 68034  97.2847  93.8909 0001759  92.4949 267.6495 15.33458225 13132","mean_motion":15.33458225,"eccentricity":0.0001759,"inclination_deg":97.2847,"raan_deg":93.8909,"arg_perigee_deg":92.4949,"mean_anomaly_deg":267.6495,"bstar":0.00052266,"rev_number":1313,"period_min":93.905394781785,"perigee_km":464.30003004413,"apogee_km":466.70762288688,"semimajor_km":6843.6408264655,"source":"CELESTRAK","updated_at":"2026-05-25T13:38:21.808271Z"}}}